• In Hungary
  • List of Countries
  • For 7 days
  • Water Temperature
  • Satellite Maps
  • Weather Map
  • News
  • Weather Widgets
  • user-avatar
    Login

    Hourly Weather Gjirokaster

    Today, 20 November, Monday

    Time Temperature Precipitation Wind Pressure Humidity
    00:00 +2°C° 0.2 mm 3 mps 647 mmHg 89%
    01:00 +1°C° 0 mm 4 mps 646 mmHg 88%
    02:00 +1°C° 0.5 mm 4 mps 647 mmHg 89%
    03:00 0°C° 0.5 mm 4 mps 647 mmHg 89%
    04:00 0°C° 0.5 mm 5 mps 647 mmHg 89%
    05:00 0°C° 0.8 mm 5 mps 647 mmHg 89%
    06:00 0°C° 0.8 mm 5 mps 647 mmHg 89%
    07:00 0°C° 0 mm 5 mps 647 mmHg 88%
    08:00 0°C° 0.3 mm 5 mps 648 mmHg 81%
    09:00 +1°C° 0.3 mm 6 mps 648 mmHg 74%
    10:00 +2°C° 0.3 mm 6 mps 649 mmHg 67%
    11:00 +2°C° 0 mm 6 mps 649 mmHg 63%
    12:00 +2°C° 0 mm 6 mps 649 mmHg 59%
    13:00 +3°C° 0 mm 6 mps 650 mmHg 55%
    14:00 +2°C° 0 mm 6 mps 650 mmHg 58%
    15:00 +1°C° 0 mm 5 mps 650 mmHg 61%
    16:00 0°C° 0 mm 5 mps 650 mmHg 64%
    17:00 -1°C° 0 mm 4 mps 650 mmHg 66%
    18:00 -2°C° 0 mm 4 mps 650 mmHg 68%
    19:00 -1°C° 0 mm 3 mps 650 mmHg 70%
    20:00 -2°C° 0 mm 3 mps 651 mmHg 70%
    21:00 -2°C° 0 mm 3 mps 651 mmHg 71%
    22:00 -2°C° 0 mm 2 mps 652 mmHg 71%
    23:00 -2°C° 0 mm 2 mps 652 mmHg 70%

    Tomorrow, 21 November, Tuesday

    Time Temperature Precipitation Wind Pressure Humidity
    00:00 -3°C° 0 mm 2 mps 652 mmHg 69%
    01:00 -3°C° 0 mm 2 mps 652 mmHg 69%
    02:00 -3°C° 0 mm 2 mps 652 mmHg 67%
    03:00 -3°C° 0 mm 2 mps 652 mmHg 65%
    04:00 -3°C° 0 mm 2 mps 652 mmHg 63%
    05:00 -3°C° 0 mm 2 mps 652 mmHg 61%
    06:00 -3°C° 0 mm 2 mps 652 mmHg 58%
    07:00 -3°C° 0 mm 2 mps 652 mmHg 55%
    08:00 -1°C° 0 mm 2 mps 653 mmHg 49%
    09:00 +3°C° 0 mm 1 mps 653 mmHg 42%
    10:00 +5°C° 0 mm 1 mps 654 mmHg 36%
    11:00 +5°C° 0 mm 1 mps 654 mmHg 36%
    12:00 +5°C° 0 mm 2 mps 654 mmHg 36%
    13:00 +6°C° 0 mm 2 mps 654 mmHg 36%
    14:00 +4°C° 0 mm 2 mps 653 mmHg 41%
    15:00 +3°C° 0 mm 2 mps 653 mmHg 47%
    16:00 +3°C° 0 mm 1 mps 653 mmHg 53%
    17:00 +3°C° 0 mm 1 mps 653 mmHg 53%
    18:00 +2°C° 0 mm 1 mps 653 mmHg 54%
    19:00 +1°C° 0 mm 1 mps 653 mmHg 54%
    20:00 +1°C° 0 mm 1 mps 653 mmHg 54%
    21:00 +1°C° 0 mm 1 mps 653 mmHg 53%
    22:00 +1°C° 0 mm 1 mps 653 mmHg 53%
    23:00 +1°C° 0 mm 1 mps 653 mmHg 52%

    Day after tomorrow, 22 November, Wednesday

    Time Temperature Precipitation Wind Pressure Humidity
    00:00 +1°C° 0 mm 1 mps 653 mmHg 51%
    01:00 0°C° 0 mm 1 mps 653 mmHg 50%
    02:00 0°C° 0 mm 1 mps 653 mmHg 49%
    03:00 0°C° 0 mm 1 mps 653 mmHg 49%
    04:00 0°C° 0 mm 1 mps 652 mmHg 48%
    05:00 0°C° 0 mm 1 mps 653 mmHg 48%
    06:00 +1°C° 0 mm 1 mps 653 mmHg 49%
    07:00 +1°C° 0 mm 1 mps 653 mmHg 49%
    08:00 +3°C° 0 mm 1 mps 653 mmHg 47%
    09:00 +5°C° 0 mm 1 mps 654 mmHg 45%
    10:00 +7°C° 0 mm 1 mps 655 mmHg 44%
    11:00 +7°C° 0 mm 1 mps 655 mmHg 45%
    12:00 +8°C° 0 mm 1 mps 655 mmHg 45%
    13:00 +9°C° 0 mm 1 mps 654 mmHg 46%
    14:00 +8°C° 0 mm 1 mps 654 mmHg 53%
    15:00 +6°C° 0 mm 1 mps 654 mmHg 59%
    16:00 +5°C° 0 mm 1 mps 654 mmHg 65%
    17:00 +5°C° 0 mm 1 mps 654 mmHg 67%
    18:00 +4°C° 0 mm 1 mps 654 mmHg 69%
    19:00 +3°C° 0 mm 1 mps 654 mmHg 71%
    20:00 +3°C° 0 mm 1 mps 654 mmHg 71%
    21:00 +3°C° 0 mm 1 mps 654 mmHg 70%
    22:00 +3°C° 0 mm 1 mps 654 mmHg 70%
    23:00 +3°C° 0 mm 1 mps 654 mmHg 69%

    23 November, Thursday

    Time Temperature Precipitation Wind Pressure Humidity
    00:00 +3°C° 0 mm 1 mps 654 mmHg 69%
    01:00 +3°C° 0 mm 1 mps 654 mmHg 68%
    02:00 +2°C° 0 mm 1 mps 654 mmHg 68%
    03:00 +2°C° 0 mm 1 mps 653 mmHg 67%
    04:00 +2°C° 0 mm 1 mps 653 mmHg 67%
    05:00 +2°C° 0 mm 1 mps 653 mmHg 67%
    06:00 +2°C° 0 mm 1 mps 654 mmHg 66%
    07:00 +2°C° 0 mm 1 mps 654 mmHg 66%
    08:00 +4°C° 0 mm 1 mps 654 mmHg 61%
    09:00 +6°C° 0 mm 1 mps 655 mmHg 55%
    10:00 +9°C° 0 mm 1 mps 655 mmHg 49%
    11:00 +9°C° 0 mm 1 mps 655 mmHg 49%
    12:00 +9°C° 0 mm 2 mps 655 mmHg 48%
    13:00 +10°C° 0 mm 2 mps 655 mmHg 48%
    14:00 +8°C° 0 mm 2 mps 655 mmHg 53%
    15:00 +7°C° 0 mm 2 mps 655 mmHg 59%
    16:00 +6°C° 0 mm 2 mps 654 mmHg 65%
    17:00 +5°C° 0 mm 2 mps 654 mmHg 66%
    18:00 +4°C° 0 mm 2 mps 654 mmHg 67%
    19:00 +3°C° 0 mm 2 mps 655 mmHg 68%
    20:00 +3°C° 0 mm 2 mps 655 mmHg 67%
    21:00 +3°C° 0 mm 2 mps 655 mmHg 66%
    22:00 +4°C° 0 mm 1 mps 655 mmHg 64%
    23:00 +3°C° 0 mm 2 mps 655 mmHg 63%

    24 November, Friday

    Time Temperature Precipitation Wind Pressure Humidity
    00:00 +2°C° 0 mm 2 mps 655 mmHg 62%
    01:00 +2°C° 0 mm 2 mps 654 mmHg 61%
    02:00 +2°C° 0 mm 2 mps 654 mmHg 61%
    03:00 +2°C° 0 mm 2 mps 654 mmHg 60%
    04:00 +2°C° 0 mm 2 mps 654 mmHg 60%
    05:00 +2°C° 0 mm 2 mps 654 mmHg 60%
    06:00 +2°C° 0 mm 2 mps 654 mmHg 60%
    07:00 +2°C° 0 mm 2 mps 654 mmHg 60%
    08:00 +4°C° 0 mm 2 mps 655 mmHg 55%
    09:00 +7°C° 0 mm 1 mps 656 mmHg 50%
    10:00 +9°C° 0 mm 1 mps 656 mmHg 45%
    11:00 +10°C° 0 mm 1 mps 656 mmHg 45%
    12:00 +9°C° 0 mm 2 mps 656 mmHg 44%
    13:00 +10°C° 0 mm 2 mps 656 mmHg 44%
    14:00 +9°C° 0 mm 2 mps 655 mmHg 50%
    15:00 +7°C° 0 mm 2 mps 655 mmHg 57%
    16:00 +6°C° 0 mm 2 mps 655 mmHg 63%
    17:00 +5°C° 0 mm 2 mps 655 mmHg 66%
    18:00 +4°C° 0 mm 2 mps 655 mmHg 68%
    19:00 +4°C° 0 mm 2 mps 655 mmHg 70%
    20:00 +3°C° 0 mm 2 mps 655 mmHg 70%
    21:00 +3°C° 0 mm 2 mps 655 mmHg 71%
    22:00 +3°C° 0 mm 2 mps 655 mmHg 71%
    23:00 +3°C° 0 mm 2 mps 655 mmHg 71%

    25 November, Saturday

    Time Temperature Precipitation Wind Pressure Humidity
    00:00 +3°C° 0 mm 2 mps 655 mmHg 72%
    01:00 +2°C° 0 mm 2 mps 655 mmHg 72%
    02:00 +2°C° 0 mm 2 mps 655 mmHg 73%
    03:00 +2°C° 0 mm 2 mps 655 mmHg 74%
    04:00 +2°C° 0 mm 2 mps 655 mmHg 75%
    05:00 +2°C° 0 mm 2 mps 655 mmHg 75%
    06:00 +2°C° 0 mm 2 mps 656 mmHg 75%
    07:00 +2°C° 0 mm 2 mps 656 mmHg 76%
    08:00 +5°C° 0 mm 1 mps 656 mmHg 69%
    09:00 +7°C° 0 mm 1 mps 657 mmHg 63%
    10:00 +9°C° 0 mm 1 mps 658 mmHg 56%
    11:00 +9°C° 0 mm 1 mps 657 mmHg 54%
    12:00 +10°C° 0 mm 1 mps 657 mmHg 51%
    13:00 +11°C° 0 mm 1 mps 657 mmHg 48%
    14:00 +10°C° 0 mm 1 mps 657 mmHg 54%
    15:00 +8°C° 0 mm 1 mps 657 mmHg 60%
    16:00 +7°C° 0 mm 1 mps 656 mmHg 66%
    17:00 +6°C° 0 mm 1 mps 656 mmHg 68%
    18:00 +6°C° 0 mm 1 mps 657 mmHg 70%
    19:00 +5°C° 0 mm 1 mps 657 mmHg 73%
    20:00 +5°C° 0 mm 1 mps 657 mmHg 73%
    21:00 +4°C° 0 mm 1 mps 657 mmHg 73%
    22:00 +4°C° 0 mm 1 mps 657 mmHg 74%
    23:00 +4°C° 0 mm 1 mps 657 mmHg 74%
    Show more